| time (UTC) | temp C | wind direction | speed KPH | gust KPH | rain 1hr cm | rain 24hr cm | rain mn cm | humidity % | barometer mb |
| 20260502151425 | 12 | 228 | 1.6 | 4.8 | 0.00 | 0.64 | 0.64 | 79 | 1012.2 |
| 20260502150424 | 12 | 0 | 0.0 | 3.2 | 0.00 | 0.64 | 0.64 | 79 | 1012.2 |
| 20260502130355 | 9 | 0 | 0.0 | 3.2 | 0.00 | 0.64 | 0.64 | 93 | 1012.6 |
| 20260502123341 | 9 | 0 | 0.0 | 0.0 | 0.00 | 0.64 | 0.64 | 95 | 1012.7 |
| 20260502122341 | 9 | 0 | 0.0 | 0.0 | 0.03 | 0.64 | 0.64 | 96 | 1012.6 |
| 20260502121342 | 9 | 0 | 0.0 | 3.2 | 0.10 | 0.64 | 0.64 | 96 | 1012.7 |
| 20260502120342 | 8 | 0 | 0.0 | 1.6 | 0.15 | 0.64 | 0.64 | 96 | 1012.8 |
| 20260502115344 | 8 | 0 | 0.0 | 1.6 | 0.28 | 0.64 | 0.64 | 96 | 1012.7 |
| 20260502114329 | 8 | 0 | 0.0 | 3.2 | 0.30 | 0.64 | 0.64 | 95 | 1012.7 |
| 20260502113327 | 8 | 0 | 0.0 | 0.0 | 0.30 | 0.64 | 0.64 | 95 | 1012.8 |
| 20260502112329 | 8 | 45 | 0.0 | 1.6 | 0.28 | 0.61 | 0.61 | 95 | 1013.1 |
| 20260502111327 | 8 | 0 | 0.0 | 3.2 | 0.28 | 0.56 | 0.56 | 95 | 1013.3 |
| 20260502110328 | 8 | 298 | 0.0 | 3.2 | 0.28 | 0.48 | 0.48 | 95 | 1013.0 |
| 20260502105329 | 8 | 0 | 0.0 | 0.0 | 0.18 | 0.36 | 0.36 | 94 | 1012.9 |
| 20260502104314 | 8 | 0 | 0.0 | 0.0 | 0.15 | 0.33 | 0.33 | 94 | 1012.8 |
| 20260502103314 | 8 | 0 | 0.0 | 1.6 | 0.15 | 0.33 | 0.33 | 94 | 1012.6 |
| 20260502102315 | 8 | 0 | 0.0 | 0.0 | 0.15 | 0.33 | 0.33 | 93 | 1012.8 |
| 20260502101314 | 8 | 0 | 0.0 | 1.6 | 0.10 | 0.28 | 0.28 | 93 | 1013.2 |
| 20260502100259 | 8 | 264 | 0.0 | 3.2 | 0.03 | 0.20 | 0.20 | 93 | 1013.0 |
| 20260502091258 | 8 | 256 | 0.0 | 3.2 | 0.00 | 0.18 | 0.18 | 93 | 1012.1 |
| 20260502090258 | 8 | 0 | 0.0 | 1.6 | 0.08 | 0.18 | 0.18 | 93 | 1012.0 |
| 20260502071201 | 10 | 0 | 0.0 | 3.2 | 0.05 | 0.08 | 0.08 | 90 | 1011.7 |
| 20260502070201 | 10 | 0 | 0.0 | 1.6 | 0.05 | 0.08 | 0.08 | 89 | 1012.3 |
| 20260502065201 | 10 | 0 | 0.0 | 3.2 | 0.03 | 0.05 | 0.05 | 88 | 1012.3 |
| 20260502064203 | 10 | 0 | 0.0 | 3.2 | 0.03 | 0.05 | 0.05 | 87 | 1012.1 |
| 20260502063203 | 10 | 10 | 0.0 | 1.6 | 0.05 | 0.05 | 0.05 | 86 | 1011.9 |
| 20260502062201 | 10 | 227 | 0.0 | 1.6 | 0.03 | 0.03 | 0.03 | 86 | 1012.0 |
| 20260502061203 | 10 | 0 | 0.0 | 1.6 | 0.03 | 0.03 | 0.03 | 84 | 1011.8 |
| 20260502060150 | 10 | 28 | 0.0 | 1.6 | 0.03 | 0.03 | 0.03 | 83 | 1011.9 |
| 20260502055133 | 11 | 0 | 0.0 | 1.6 | 0.03 | 0.03 | 0.03 | 79 | 1011.8 |
| 20260502054133 | 11 | 0 | 0.0 | 0.0 | 0.03 | 0.03 | 0.03 | 74 | 1012.2 |
| 20260502053134 | 11 | 214 | 0.0 | 1.6 | 0.00 | 0.00 | 0.00 | 73 | 1012.4 |
| 20260502052134 | 11 | 0 | 0.0 | 0.0 | 0.00 | 0.00 | 0.00 | 69 | 1012.3 |
| 20260502051134 | 11 | 0 | 1.6 | 3.2 | 0.00 | 0.00 | 0.00 | 68 | 1012.4 |
| 20260502050121 | 11 | 276 | 0.0 | 3.2 | 0.00 | 0.00 | 0.00 | 68 | 1012.3 |
| 20260502045121 | 11 | 0 | 0.0 | 3.2 | 0.00 | 0.00 | 0.00 | 67 | 1012.1 |
| 20260502044122 | 11 | 0 | 0.0 | 3.2 | 0.00 | 0.00 | 0.00 | 67 | 1012.2 |
| 20260502043120 | 11 | 70 | 0.0 | 3.2 | 0.00 | 0.00 | 0.00 | 67 | 1012.1 |
| 20260502042120 | 11 | 0 | 0.0 | 0.0 | 0.00 | 0.00 | 0.00 | 66 | 1011.9 |
| 20260502041120 | 11 | 0 | 0.0 | 1.6 | 0.00 | 0.00 | 0.00 | 65 | 1011.9 |
| 20260502040120 | 12 | 0 | 0.0 | 0.0 | 0.00 | 0.00 | 0.00 | 65 | 1012.1 |
| 20260502035120 | 12 | 0 | 0.0 | 1.6 | 0.00 | 0.00 | 0.00 | 65 | 1012.0 |
| 20260502034121 | 12 | 0 | 0.0 | 3.2 | 0.00 | 0.00 | 0.00 | 64 | 1012.3 |
| 20260502033118 | 12 | 0 | 0.0 | 3.2 | 0.00 | 0.00 | 0.00 | 63 | 1012.2 |
| 20260502032119 | 12 | 0 | 0.0 | 0.0 | 0.00 | 0.00 | 0.00 | 62 | 1012.2 |
| 20260502031119 | 12 | 0 | 0.0 | 0.0 | 0.00 | 0.00 | 0.00 | 60 | 1012.3 |
| 20260502030120 | 12 | 0 | 0.0 | 0.0 | 0.00 | 0.00 | 0.00 | 58 | 1012.2 |
| 20260502025118 | 13 | 0 | 0.0 | 0.0 | 0.00 | 0.00 | 0.00 | 57 | 1012.2 |
| 20260502024118 | 13 | 0 | 0.0 | 3.2 | 0.00 | 0.00 | 0.00 | 55 | 1012.1 |
| 20260502023117 | 13 | 240 | 0.0 | 4.8 | 0.00 | 0.00 | 0.00 | 53 | 1012.2 |
| 20260502022120 | 13 | 224 | 0.0 | 4.8 | 0.00 | 0.00 | 0.00 | 52 | 1012.1 |
| 20260502021117 | 13 | 0 | 0.0 | 0.0 | 0.00 | 0.00 | 0.00 | 49 | 1012.1 |
| 20260502020115 | 13 | 0 | 0.0 | 1.6 | 0.00 | 0.00 | 0.00 | 49 | 1012.1 |
| 20260502015116 | 13 | 0 | 0.0 | 3.2 | 0.00 | 0.00 | 0.00 | 47 | 1012.2 |
| 20260502014114 | 13 | 225 | 1.6 | 3.2 | 0.00 | 0.00 | 0.00 | 49 | 1012.1 |
| 20260502013111 | 13 | 0 | 0.0 | 0.0 | 0.00 | 0.00 | 0.00 | 49 | 1011.9 |
| 20260502012111 | 13 | 0 | 0.0 | 4.8 | 0.00 | 0.00 | 0.00 | 46 | 1011.9 |
| 20260502011111 | 13 | 0 | 0.0 | 0.0 | 0.00 | 0.00 | 0.00 | 55 | 1011.7 |
| 20260502010111 | 13 | 0 | 0.0 | 0.0 | 0.00 | 0.00 | 0.00 | 52 | 1011.4 |
| 20260502005113 | 13 | 0 | 0.0 | 0.0 | 0.00 | 0.00 | 0.00 | 51 | 1011.3 |
| 20260502004110 | 13 | 0 | 0.0 | 1.6 | 0.00 | 0.00 | 0.00 | 53 | 1011.3 |
| 20260502003109 | 13 | 0 | 0.0 | 1.6 | 0.00 | 0.00 | 0.00 | 52 | 1011.1 |
| 20260502002109 | 13 | 0 | 0.0 | 0.0 | 0.00 | 0.00 | 0.00 | 47 | 1011.0 |
| 20260502001109 | 14 | 0 | 0.0 | 0.0 | 0.00 | 0.00 | 0.00 | 46 | 1010.8 |
| 20260502000110 | 15 | 0 | 0.0 | 0.0 | 0.00 | 0.00 | 0.00 | 44 | 1010.7 |
| 20260501235110 | 15 | 0 | 0.0 | 0.0 | 0.00 | 0.00 | 0.00 | 42 | 1010.6 |
| 20260501234107 | 15 | 0 | 0.0 | 1.6 | 0.00 | 0.00 | 0.00 | 39 | 1010.5 |
| 20260501233108 | 15 | 0 | 0.0 | 1.6 | 0.00 | 0.00 | 0.00 | 39 | 1010.4 |
| 20260501232108 | 16 | 0 | 0.0 | 1.6 | 0.00 | 0.00 | 0.00 | 37 | 1010.3 |
| 20260501231107 | 16 | 220 | 0.0 | 4.8 | 0.00 | 0.00 | 0.00 | 37 | 1010.2 |
| 20260501230105 | 16 | 233 | 1.6 | 4.8 | 0.00 | 0.00 | 0.00 | 36 | 1010.1 |
| 20260501225104 | 17 | 226 | 1.6 | 9.7 | 0.00 | 0.00 | 0.00 | 34 | 1010.0 |
| 20260501224105 | 17 | 202 | 1.6 | 8.0 | 0.00 | 0.00 | 0.00 | 32 | 1009.9 |
| 20260501223106 | 18 | 0 | 1.6 | 4.8 | 0.00 | 0.00 | 0.00 | 33 | 1009.9 |
| 20260501222105 | 18 | 0 | 1.6 | 9.7 | 0.00 | 0.00 | 0.00 | 31 | 1009.8 |
| 20260501221103 | 18 | 217 | 1.6 | 6.4 | 0.00 | 0.00 | 0.00 | 31 | 1010.0 |
| 20260501215101 | 19 | 254 | 3.2 | 9.7 | 0.00 | 0.00 | 0.00 | 30 | 1010.1 |
| 20260501214059 | 18 | 241 | 1.6 | 4.8 | 0.00 | 0.00 | 0.00 | 32 | 1010.0 |
| 20260501213101 | 20 | 202 | 3.2 | 11.3 | 0.00 | 0.00 | 0.00 | 32 | 1010.1 |
| 20260501212101 | 20 | 275 | 1.6 | 9.7 | 0.00 | 0.00 | 0.00 | 30 | 1010.1 |
| 20260501211101 | 18 | 0 | 3.2 | 9.7 | 0.00 | 0.00 | 0.00 | 30 | 1010.0 |
| 20260501210058 | 18 | 195 | 4.8 | 11.3 | 0.00 | 0.00 | 0.00 | 31 | 1010.0 |
| 20260501205058 | 18 | 220 | 4.8 | 9.7 | 0.00 | 0.00 | 0.00 | 32 | 1010.0 |
| 20260501204059 | 19 | 253 | 3.2 | 12.9 | 0.00 | 0.00 | 0.00 | 31 | 1010.0 |
| 20260501203100 | 18 | 265 | 3.2 | 9.7 | 0.00 | 0.00 | 0.00 | 31 | 1010.0 |
| 20260501202059 | 18 | 20 | 3.2 | 11.3 | 0.00 | 0.00 | 0.00 | 31 | 1010.0 |
| 20260501201056 | 17 | 208 | 4.8 | 20.9 | 0.00 | 0.00 | 0.00 | 33 | 1010.1 |
| 20260501200056 | 18 | 223 | 4.8 | 14.5 | 0.00 | 0.00 | 0.00 | 32 | 1010.0 |
| 20260501195057 | 17 | 105 | 4.8 | 16.1 | 0.00 | 0.00 | 0.00 | 32 | 1010.0 |
| 20260501194057 | 17 | 220 | 4.8 | 12.9 | 0.00 | 0.00 | 0.00 | 33 | 1009.9 |
| 20260501193057 | 17 | 213 | 4.8 | 14.5 | 0.00 | 0.00 | 0.00 | 34 | 1010.2 |
| 20260501192059 | 17 | 142 | 4.8 | 14.5 | 0.00 | 0.00 | 0.00 | 33 | 1010.3 |
| 20260501191056 | 17 | 259 | 3.2 | 11.3 | 0.00 | 0.00 | 0.00 | 35 | 1010.4 |
| 20260501190055 | 17 | 227 | 3.2 | 11.3 | 0.00 | 0.00 | 0.00 | 34 | 1010.6 |
| 20260501185053 | 16 | 221 | 4.8 | 14.5 | 0.00 | 0.00 | 0.00 | 35 | 1010.6 |
| 20260501184055 | 17 | 260 | 4.8 | 11.3 | 0.00 | 0.00 | 0.00 | 35 | 1010.7 |
| 20260501183056 | 17 | 176 | 6.4 | 14.5 | 0.00 | 0.00 | 0.00 | 33 | 1010.9 |
| 20260501182054 | 18 | 173 | 3.2 | 11.3 | 0.00 | 0.00 | 0.00 | 32 | 1010.9 |
| 20260501181051 | 17 | 75 | 3.2 | 14.5 | 0.00 | 0.00 | 0.00 | 33 | 1011.0 |
| 20260501180051 | 17 | 251 | 4.8 | 14.5 | 0.00 | 0.00 | 0.00 | 33 | 1011.0 |
| 20260501175051 | 17 | 265 | 3.2 | 12.9 | 0.00 | 0.00 | 0.00 | 34 | 1011.2 |
| 20260501174051 | 17 | 68 | 3.2 | 9.7 | 0.00 | 0.00 | 0.00 | 33 | 1010.9 |
| 20260501173050 | 17 | 226 | 4.8 | 11.3 | 0.00 | 0.00 | 0.00 | 35 | 1011.0 |
| 20260501172047 | 17 | 254 | 3.2 | 14.5 | 0.00 | 0.00 | 0.00 | 33 | 1011.0 |
| 20260501171045 | 16 | 238 | 3.2 | 11.3 | 0.00 | 0.00 | 0.00 | 34 | 1011.1 |
| 20260501170047 | 16 | 252 | 4.8 | 12.9 | 0.00 | 0.00 | 0.00 | 34 | 1011.2 |
| 20260501165047 | 16 | 290 | 4.8 | 11.3 | 0.00 | 0.00 | 0.00 | 35 | 1011.3 |
| 20260501164047 | 16 | 151 | 3.2 | 6.4 | 0.00 | 0.00 | 0.00 | 37 | 1011.3 |
| 20260501163047 | 15 | 222 | 4.8 | 9.7 | 0.00 | 0.00 | 0.00 | 37 | 1011.3 |
| 20260501162046 | 15 | 230 | 3.2 | 9.7 | 0.00 | 0.00 | 0.00 | 38 | 1011.4 |
| 20260501161046 | 15 | 194 | 3.2 | 12.9 | 0.00 | 0.00 | 0.00 | 41 | 1011.3 |
| 20260501160047 | 15 | 49 | 3.2 | 12.9 | 0.00 | 0.00 | 0.00 | 40 | 1011.4 |
| 20260501155047 | 15 | 45 | 3.2 | 8.0 | 0.00 | 0.00 | 0.00 | 44 | 1011.6 |
| 20260501154046 | 15 | 223 | 1.6 | 11.3 | 0.00 | 0.00 | 0.00 | 43 | 1011.8 |